TDRS 13                 
1 42915U 17047A   19265.06404306 -.00000104  00000-0  00000+0 0  9991
2 42915   5.9852 330.2750 0012006  98.5734 303.4007  1.00272069  7716
ATLAS 5 CENTAUR R/B     
1 42916U 17047B   19264.24531333 -.00000048  00000-0  00000+0 0  9999
2 42916  25.4995 214.6304 5788371  14.7773 356.6537  2.06621273 15781